YUNHAI-2 02 (43910 NORAD) Tracking and Keplerian Element Data

This shows tracking and keplerian element data for the satellite.

Feedback or suggestion? Click here.




ElementValue
Catalog43910
NameYUNHAI-2 02
Epoch Orbit31905
Epoch Day35.30480592
Epoch Year2025
RAAN60.7206
Inclination50.0126
Eccentricity0.0005113
Argument of Perigee273.7977
Mean Anonmoly86.2353
Mean Motion14.28685535
Decay Rate4.7E-06
L11 43910U 18112B 25035.30480592 .00000470 00000+0 24927-3 0 9993
L22 43910 50.0126 60.7206 0005113 273.7977 86.2353 14.28685535319058



Live tracking and technical data element details for YUNHAI-2 02 (NORAD 43910). YUNHAI-2 02 can be tracked NOW for your location showing map with azimuth and elevation plus other details from your city location.







IsCatalogInMostPopularTable: catalog: 43910, numindb: 379
Update: records affected: 1



GetName: 43910 YUNHAI-2 02

Hit Count: updated at: Thu, 22 May 2025 03:13:28 GMT